Mineola, TX

2:29 AM CDT on June 24, 2017 (GMT -0500)
Mineola

Weather History for KJDD - January, 2013

Change the Weather History Date:

Friday, January 25, 2013

  Actual Average (KTYR) Record (KTYR)
Temperature  
Mean Temperature 56 °F -  
Max Temperature 64 °F 56 °F 83 °F (1950)
Min Temperature 48 °F 37 °F 9 °F (1963)
Degree Days  
Heating Degree Days 9    
Growing Degree Days 6 (Base 50)    
Moisture  
Dew Point 52 °F    
Average Humidity 90    
Maximum Humidity 100    
Minimum Humidity 82    
Precipitation  
Precipitation 0.00 in - - ()
Sea Level Pressure  
Sea Level Pressure 30.14 in    
Wind  
Wind Speed 4 mph (NNW)    
Max Wind Speed 18 mph    
Max Gust Speed 24 mph    
Visibility 6 miles    
Events      
Averages and records for this station are not official NWS values.
T = Trace of Precipitation, MM = Missing Value Source: NWS Daily Summary

Daily Weather History Graph

Daily Weather History Graph

Search for Another Location

Airport or City:

Trip Planner

Search our weather history database for the weather conditions in past years. The results will help you decide how hot, cold, wet, or windy it might be!

Date:

Astronomy

Jan. 25, 2013 Rise Set
Actual Time 7:20 AM CST 5:48 PM CST
Civil Twilight 6:54 AM CST 6:14 PM CST
Nautical Twilight 6:24 AM CST 6:44 PM CST
Astronomical Twilight 5:55 AM CST 7:13 PM CST
Moon 4:46 PM CST (1/25) 6:00 AM CST (1/25)
Length of Visible Light 11h 20m
Length of Day
10h 27m
Waxing Gibbous, 98% of the Moon is Illuminated
Jan 25
Waxing Gibbous
Jan 26
Full
Feb 3
Last Quarter
Feb 10
New
Feb 17
First Quarter

Hourly Weather History & Observations

Time (CST) Temp. Dew Point Humidity Pressure Visibility Wind Dir Wind Speed Gust Speed Precip Events Conditions
12:15 AM 55.4 °F 55.4 °F 100% 30.09 in 2.5 mi Calm Calm - N/A   Mist
12:35 AM 53.6 °F 53.6 °F 100% 30.08 in 2.5 mi Calm Calm - N/A   Mist
12:55 AM 55.4 °F 55.4 °F 100% 30.07 in 3.0 mi SSE 4.6 mph - N/A   Mist
1:15 AM 60.8 °F 60.8 °F 100% 30.07 in 9.0 mi SSE 3.5 mph - N/A   Unknown
1:35 AM 60.8 °F 60.8 °F 100% 30.07 in 10.0 mi SSE 3.5 mph - N/A   Unknown
1:55 AM 60.8 °F 60.8 °F 100% 30.07 in 10.0 mi SSE 4.6 mph - N/A   Unknown
2:15 AM 62.6 °F 60.8 °F 94% 30.07 in 10.0 mi Calm Calm - N/A   Unknown
2:35 AM 62.6 °F 60.8 °F 94% 30.07 in 10.0 mi Calm Calm - N/A   Unknown
2:55 AM 62.6 °F 60.8 °F 94% 30.07 in 10.0 mi SSW 5.8 mph - N/A   Unknown
3:15 AM 62.6 °F 60.8 °F 94% 30.07 in 10.0 mi SSW 6.9 mph - N/A   Unknown
3:35 AM 62.6 °F 60.8 °F 94% 30.07 in 10.0 mi SSW 9.2 mph - N/A   Unknown
3:55 AM 62.6 °F 60.8 °F 94% 30.07 in 10.0 mi SSW 9.2 mph - N/A   Unknown
4:15 AM 62.6 °F 60.8 °F 94% 30.05 in 10.0 mi South 10.4 mph - N/A   Unknown
4:35 AM 62.6 °F 60.8 °F 94% 30.05 in 9.0 mi SSW 9.2 mph - N/A   Unknown
4:55 AM 62.6 °F 60.8 °F 94% 30.04 in 10.0 mi SSW 10.4 mph - N/A   Unknown
5:15 AM 64.4 °F 60.8 °F 88% 30.06 in 9.0 mi SW 9.2 mph - N/A   Unknown
5:35 AM 64.4 °F 60.8 °F 88% 30.06 in 9.0 mi SSW 6.9 mph - N/A   Unknown
5:55 AM 64.4 °F 60.8 °F 88% 30.07 in 9.0 mi SSW 9.2 mph - N/A   Unknown
6:15 AM 64.4 °F 60.8 °F 88% 30.07 in 10.0 mi SSW 8.1 mph - N/A   Unknown
6:35 AM 64.4 °F 60.8 °F 88% 30.08 in 9.0 mi SSW 5.8 mph - N/A   Unknown
6:55 AM 64.4 °F 60.8 °F 88% 30.10 in 10.0 mi SSW 4.6 mph - N/A   Unknown
7:35 AM 64.4 °F 60.8 °F 88% 30.11 in 8.0 mi SW 4.6 mph - N/A   Unknown
7:55 AM 64.4 °F 60.8 °F 88% 30.11 in 8.0 mi WSW 4.6 mph - N/A   Unknown
8:15 AM 64.4 °F 60.8 °F 88% 30.12 in 7.0 mi SW 3.5 mph - N/A   Unknown
8:35 AM 60.8 °F 57.2 °F 88% 30.15 in 5.0 mi NNW 18.4 mph 24.2 mph N/A   Mist
8:55 AM 51.8 °F 50.0 °F 94% 30.16 in 1.5 mi North 8.1 mph - N/A   Mist
9:15 AM 50.0 °F 48.2 °F 94% 30.16 in 2.0 mi NNW 5.8 mph - N/A   Mist
9:35 AM 48.2 °F 48.2 °F 100% 30.18 in 2.0 mi North 6.9 mph - N/A   Mist
9:55 AM 48.2 °F 48.2 °F 100% 30.18 in 2.5 mi Calm Calm - N/A   Mist
10:15 AM 48.2 °F 48.2 °F 100% 30.18 in 3.0 mi Calm Calm - N/A   Mist
10:35 AM 50.0 °F 48.2 °F 94% 30.18 in 3.0 mi North 5.8 mph - N/A   Mist
10:55 AM 50.0 °F 48.2 °F 94% 30.19 in 3.0 mi North 6.9 mph - N/A   Mist
11:15 AM 50.0 °F 48.2 °F 94% 30.19 in 3.0 mi North 5.8 mph - N/A   Mist
11:35 AM 51.8 °F 48.2 °F 88% 30.20 in 3.0 mi NNW 8.1 mph - N/A   Mist
11:55 AM 50.0 °F 48.2 °F 94% 30.19 in 3.0 mi NNW 9.2 mph - N/A   Mist
12:15 PM 50.0 °F 48.2 °F 94% 30.17 in 3.0 mi North 6.9 mph - N/A   Mist
12:35 PM 50.0 °F 48.2 °F 94% 30.16 in 3.0 mi North 6.9 mph - N/A   Mist
1:15 PM 48.2 °F 46.4 °F 93% 30.15 in 2.5 mi North 4.6 mph - N/A   Mist
1:35 PM 48.2 °F 46.4 °F 93% 30.15 in 2.5 mi NNW 6.9 mph - N/A   Mist
1:55 PM 48.2 °F 46.4 °F 93% 30.15 in 2.5 mi North 5.8 mph - N/A   Mist
2:15 PM 50.0 °F 46.4 °F 87% 30.15 in 2.5 mi NNE 4.6 mph - N/A   Mist
2:35 PM 50.0 °F 46.4 °F 87% 30.15 in 2.0 mi North 5.8 mph - N/A   Mist
2:55 PM 50.0 °F 48.2 °F 94% 30.15 in 2.5 mi Calm Calm - N/A   Mist
3:15 PM 50.0 °F 46.4 °F 87% 30.15 in 3.0 mi North 4.6 mph - N/A   Mist
3:35 PM 51.8 °F 46.4 °F 82% 30.15 in 3.0 mi NNE 4.6 mph - N/A   Mist
3:55 PM 51.8 °F 48.2 °F 88% 30.15 in 3.0 mi NNE 5.8 mph - N/A   Mist
4:15 PM 51.8 °F 46.4 °F 82% 30.15 in 3.0 mi North 3.5 mph - N/A   Mist
4:35 PM 51.8 °F 46.4 °F 82% 30.15 in 3.0 mi NNE 5.8 mph - N/A   Mist
4:55 PM 51.8 °F 46.4 °F 82% 30.16 in 3.0 mi Calm Calm - N/A   Mist
5:15 PM 51.8 °F 48.2 °F 88% 30.16 in 4.0 mi Calm Calm - N/A   Mist
5:35 PM 51.8 °F 46.4 °F 82% 30.16 in 4.0 mi Calm Calm - N/A   Mist
5:55 PM 51.8 °F 46.4 °F 82% 30.17 in 5.0 mi Calm Calm - N/A   Mist
6:15 PM 51.8 °F 46.4 °F 82% 30.18 in 7.0 mi Calm Calm - N/A   Unknown
6:35 PM 51.8 °F 46.4 °F 82% 30.18 in 7.0 mi Calm Calm - N/A   Unknown
6:55 PM 51.8 °F 46.4 °F 82% 30.18 in 7.0 mi Calm Calm - N/A   Unknown
7:15 PM 51.8 °F 46.4 °F 82% 30.18 in 7.0 mi Calm Calm - N/A   Unknown
7:35 PM 51.8 °F 46.4 °F 82% 30.18 in 7.0 mi Calm Calm - N/A   Unknown
7:55 PM 51.8 °F 48.2 °F 88% 30.18 in 6.0 mi Calm Calm - N/A   Mist
8:15 PM 51.8 °F 46.4 °F 82% 30.17 in 7.0 mi Calm Calm - N/A   Unknown
8:35 PM 51.8 °F 46.4 °F 82% 30.16 in 6.0 mi ENE 3.5 mph - N/A   Haze
8:55 PM 51.8 °F 46.4 °F 82% 30.16 in 7.0 mi Calm Calm - N/A   Unknown
9:15 PM 51.8 °F 46.4 °F 82% 30.17 in 7.0 mi Calm Calm - N/A   Unknown
9:35 PM 51.8 °F 46.4 °F 82% 30.17 in 7.0 mi ENE 3.5 mph - N/A   Unknown
9:55 PM 51.8 °F 46.4 °F 82% 30.17 in 7.0 mi ENE 3.5 mph - N/A   Unknown
10:15 PM 51.8 °F 46.4 °F 82% 30.18 in 7.0 mi Calm Calm - N/A   Unknown
10:35 PM 51.8 °F 48.2 °F 88% 30.19 in 7.0 mi Calm Calm - N/A   Unknown
10:55 PM 51.8 °F 48.2 °F 88% 30.19 in 7.0 mi ENE 3.5 mph - N/A   Unknown
11:15 PM 51.8 °F 48.2 °F 88% 30.19 in 6.0 mi ESE 5.8 mph - N/A   Mist
11:35 PM 51.8 °F 46.4 °F 82% 30.18 in 7.0 mi Calm Calm - N/A   Unknown
11:55 PM 51.8 °F 46.4 °F 82% 30.17 in 7.0 mi Calm Calm - N/A   Unknown